EW2956 Weather Reports


time (UTC)temp
F
wind
direction
speed
knots
gust
knots
rain 1hr
in
rain 24hr
in
rain mn
in
humidity
%
barometer
mb
20260504082002 36 0 0.0 0.0 0.00 0.00 0.00 86 1013.5
20260504081003 37 0 0.0 0.0 0.00 0.00 0.00 86 1013.5
20260504050002 40 0 0.0 0.0 0.00 0.00 0.00 78 1013.7
20260504045003 40 0 0.0 0.0 0.00 0.00 0.00 77 1013.7
20260504043003 41 0 0.0 0.0 0.00 0.00 0.00 76 1013.7
20260504042003 42 0 0.0 0.0 0.00 0.00 0.00 76 1013.7
20260504040003 43 280 0.0 0.9 0.00 0.00 0.00 70 1013.3
20260504035003 43 0 0.0 0.0 0.00 0.00 0.00 67 1013.3
20260504034003 43 0 0.0 0.0 0.00 0.00 0.00 67 1013.2
20260504033003 44 0 0.0 0.0 0.00 0.00 0.00 66 1013.3
20260504032003 44 0 0.0 0.0 0.00 0.00 0.00 64 1013.2
20260504031003 45 0 0.0 0.0 0.00 0.00 0.00 63 1013.1
20260504030002 45 0 0.0 0.0 0.00 0.00 0.00 62 1013.0
20260504025002 46 0 0.0 0.0 0.00 0.00 0.00 61 1013.1
20260504024003 46 0 0.0 0.0 0.00 0.00 0.00 62 1013.1
20260504023003 47 279 0.0 0.9 0.00 0.00 0.00 60 1013.0
20260504022003 47 243 0.0 0.9 0.00 0.00 0.00 60 1013.2
20260504021002 47 0 0.0 0.0 0.00 0.00 0.00 57 1013.1
20260504020002 48 0 0.0 0.0 0.00 0.00 0.00 56 1013.1
20260504015003 49 241 0.0 0.9 0.00 0.00 0.00 56 1013.1
20260504014003 49 225 0.0 0.9 0.00 0.00 0.00 54 1013.1
20260504013003 49 0 0.0 0.0 0.00 0.00 0.00 53 1012.9
20260504012003 49 0 0.0 0.0 0.00 0.00 0.00 53 1012.7
20260504011003 50 212 0.0 0.9 0.00 0.00 0.00 52 1012.8
20260504010003 51 215 0.0 0.9 0.00 0.00 0.00 50 1012.8
20260504005004 52 218 0.0 0.9 0.00 0.00 0.00 48 1012.6
20260504004002 52 170 0.0 0.9 0.00 0.00 0.00 48 1012.6
20260504003003 53 238 0.0 0.9 0.00 0.00 0.00 47 1012.5
20260504002003 54 254 0.0 0.9 0.00 0.00 0.00 45 1012.3
20260504001002 55 306 0.0 1.7 0.00 0.00 0.00 44 1012.3
20260503235003 56 300 0.0 1.7 0.00 0.00 0.00 42 1012.0
20260503233003 57 326 1.7 5.2 0.00 0.00 0.00 40 1012.0
20260503232003 58 293 1.7 10.4 0.00 0.00 0.00 40 1011.9
20260503231003 58 304 0.9 8.7 0.00 0.00 0.00 39 1011.9
20260503230002 59 289 1.7 7.8 0.00 0.00 0.00 37 1011.8
20260503225002 60 317 1.7 7.8 0.00 0.00 0.00 38 1011.8
20260503222003 60 290 3.5 9.6 0.00 0.00 0.00 37 1011.7
20260503221003 61 292 3.5 10.4 0.00 0.00 0.00 35 1011.7
20260503220003 61 307 1.7 7.8 0.00 0.00 0.00 36 1011.7
20260503215002 61 304 3.5 13.0 0.00 0.00 0.00 34 1011.8
20260503214003 62 298 1.7 8.7 0.00 0.00 0.00 36 1011.7
20260503213003 61 294 1.7 12.2 0.00 0.00 0.00 38 1011.5
20260503212003 60 311 3.5 15.6 0.00 0.00 0.00 37 1011.6
20260503211003 61 273 1.7 7.8 0.00 0.00 0.00 41 1011.5
20260503210003 60 304 1.7 7.0 0.00 0.00 0.00 38 1011.6
20260503205003 61 309 1.7 7.8 0.00 0.00 0.00 37 1011.6
20260503204004 62 304 3.5 8.7 0.00 0.00 0.00 37 1011.7
20260503202003 60 341 1.7 9.6 0.00 0.00 0.00 34 1011.8
20260503201002 58 284 1.7 9.6 0.00 0.00 0.00 36 1012.0
20260503200003 60 311 1.7 7.8 0.00 0.00 0.00 35 1012.0
20260503195003 60 291 1.7 7.0 0.00 0.00 0.00 40 1012.0
20260503194003 60 321 4.3 12.2 0.00 0.00 0.00 34 1012.3
20260503193003 59 280 1.7 8.7 0.00 0.00 0.00 41 1012.4
20260503191003 60 331 3.5 10.4 0.00 0.00 0.00 39 1012.7
20260503185003 58 289 3.5 17.4 0.00 0.00 0.00 38 1012.9
20260503184003 59 297 3.5 13.0 0.00 0.00 0.00 40 1013.1
20260503183003 58 290 3.5 16.5 0.00 0.00 0.00 38 1013.1
20260503182003 59 298 3.5 9.6 0.00 0.00 0.00 43 1013.2
20260503181004 58 279 1.7 9.6 0.00 0.00 0.00 39 1013.0
20260503180004 58 305 3.5 7.8 0.00 0.00 0.00 40 1013.2
20260503175003 57 312 3.5 8.7 0.00 0.00 0.00 40 1013.2
20260503174003 56 323 3.5 10.4 0.00 0.00 0.00 40 1013.3
20260503173003 57 309 3.5 8.7 0.00 0.00 0.00 38 1013.4
20260503172003 57 333 3.5 12.2 0.00 0.00 0.00 42 1013.3
20260503171003 56 338 3.5 13.0 0.00 0.00 0.00 38 1013.4
20260503151003 52 334 3.5 15.6 0.00 0.00 0.00 43 1014.2